[Date Prev][Date Next][Thread Prev][Thread Next] - [Date Index][Thread Index][Author Index]
2 Line ISS Keps 12-6
- Subject: [sarex] 2 Line ISS Keps 12-6
- From: "Dave Larsen Ph.D." <doc@xxxxxxxxxxx>
- Date: Fri, 6 Dec 2002 04:00:53 -0800
ISS
1 25544U 98067A 02340.16123507 .00030363 00000-0 41845-3 0 4450
2 25544 51.6379 269.5444 0003445 235.2486 264.6187 15.56949028230797
----
Via the sarex mailing list at AMSAT.ORG courtesy of AMSAT-NA.
To unsubscribe, send "unsubscribe sarex" to Majordomo@amsat.org
AMSAT Home